[[{"header":{"parameterUnit":"m.s-1","parameterCategory":1,"la1":30.2991,"la2":30.254,"lo1":-89.0895,"lo2":-89.0444,"dy":0.0017,"dx":0.0017,"nx":28,"ny":28,"refTime":"2024-08-29T03:00:00:Z","depth":0,"parameterNumber":2,"parameterNumberName":"U-component_of_WINDS"},"data":[0,0,0,0,0,0,0,0,0,0,0,0,0,0,0,0,0,0,0,0,0,0,0,0,0,0,0,0,0,0,0,0,0,0,0,0,0,0,0,0,0,0,0,0,0,0,0,0,0,0,0,0,0,0,0,0,0,0,-3.2814,-3.2813,0,-3.2785,-3.2785,-3.2784,-3.2691,-3.2689,-3.2687,-3.2685,-3.2658,-3.2659,-3.266,0,0,0,0,0,0,0,0,0,0,0,0,0,-3.2791,-3.2792,-3.2814,-3.2813,-3.2813,-3.2785,-3.2784,-3.2784,-3.2691,-3.2689,-3.2686,-3.2684,-3.2657,-3.2659,-3.266,0,0,0,0,0,0,0,0,0,0,0,0,0,-3.2785,-3.2792,-3.2814,-3.2763,-3.2758,-3.2785,-3.2784,-3.2784,-3.2692,-3.2689,-3.2685,-3.2682,-3.2657,-3.2659,-3.266,-3.2734,0,0,-3.2666,-3.2667,0,0,0,0,0,0,0,0,-3.2786,-3.2786,-3.2771,-3.2767,-3.2761,-3.2738,-3.2766,-3.2768,-3.2692,-3.2717,-3.2685,-3.2681,-3.2687,-3.2686,-3.2688,-3.2733,-3.2732,-3.2666,-3.2667,-3.2668,-3.2669,0,0,0,0,0,0,0,-3.2786,-3.2787,-3.2802,-3.2771,-3.2765,-3.2743,-3.2738,-3.2766,-3.272,-3.2715,-3.2708,-3.2706,-3.2684,-3.2686,-3.2687,-3.2732,-3.2666,-3.2668,-3.2669,-3.267,-3.2836,-3.2839,0,0,0,0,0,0,-3.2793,-3.2788,-3.2803,-3.2801,-3.2766,-3.2746,-3.2741,-3.2749,-3.272,-3.2712,-3.2708,-3.2701,-3.2685,-3.2684,-3.2685,-3.2769,-3.2668,-3.267,-3.2671,-3.2833,-3.2837,-3.284,0,0,0,0,0,0,-3.2793,-3.2796,-3.2804,-3.2793,-3.2792,-3.2749,-3.2759,-3.275,-3.2752,-3.2715,-3.2706,-3.2719,-3.2682,-3.2683,-3.2723,-3.2767,-3.2671,-3.2672,-3.2829,-3.2834,-3.2838,-3.2938,0,0,0,0,0,0,-3.2793,-3.2796,-3.2823,-3.2794,-3.2793,-3.2842,-3.2762,-3.2752,-3.2755,-3.2746,-3.2722,-3.2716,-3.268,-3.272,-3.2724,-3.2767,-3.2674,-3.2825,-3.2831,-3.2837,-3.293,-3.2945,-3.2958,0,0,0,0,0,-3.2793,-3.2853,-3.2825,-3.2827,-3.2826,-3.2844,-3.2844,-3.2801,-3.2759,-3.2786,-3.2762,-3.2716,-3.2762,-3.2725,-3.2729,-3.2773,-3.2822,-3.2829,-3.2836,-3.2924,-3.2942,-3.2958,0,0,0,0,0,0,-3.2889,-3.2848,-3.2817,-3.2869,-3.2861,-3.2828,-3.2861,-3.2822,-3.2826,-3.2817,-3.2764,-3.276,-3.2807,-3.2794,-3.2755,-3.2843,-3.2784,-3.2793,-3.2849,-3.2867,-3.288,-3.2882,-3.2675,0,0,0,0,0,-3.2917,-3.2934,-3.2898,-3.2948,-3.2945,-3.2904,-3.2911,-3.2878,-3.2868,-3.2864,-3.2843,-3.2835,-3.2847,-3.2857,-3.2866,-3.2929,-3.2922,-3.2961,-3.2976,-3.2987,-3.2995,-3.3026,-3.3043,-3.2865,-3.2865,-3.2865,0,0,-3.2973,-3.2953,-3.2967,-3.2967,-3.2956,-3.2976,-3.2902,-3.2926,-3.294,-3.2868,-3.2903,-3.2888,-3.2876,-3.2928,-3.2949,-3.2919,-3.3043,-3.2997,-3.3006,-3.3007,-3.3036,-3.3053,-3.3068,-3.287,-3.2869,-3.2868,0,0,-3.3086,-3.3073,-3.3113,-3.3104,-3.3089,-3.3061,-3.3071,-3.3045,-3.3032,-3.3067,-3.3012,-3.303,-3.3052,-3.3046,-3.3045,-3.3157,-3.3115,-3.3162,-3.3235,-3.3266,-3.328,-3.3293,-3.3331,-3.3346,-3.317,-3.317,-3.3171,0,-3.3158,-3.3185,-3.3138,-3.3166,-3.3167,-3.3102,-3.3142,-3.3136,-3.3126,-3.3128,-3.3094,-3.3121,-3.3109,-3.3157,-3.3184,-3.3187,-3.3196,-3.3163,-3.3282,-3.3294,-3.3304,-3.3341,-3.3356,-3.3176,-3.3175,-3.3175,-3.3174,0,-3.3274,-3.3294,-3.3328,-3.3318,-3.3324,-3.3358,-3.3317,-3.3328,-3.3296,-3.3273,-3.3309,-3.3292,-3.3297,-3.3306,-3.3276,-3.3351,-3.3332,-3.3291,-3.323,-3.3328,-3.3361,-3.3375,-3.3184,-3.3182,-3.318,-3.3179,0,0,-3.3446,-3.341,-3.3423,-3.3417,-3.3397,-3.3411,-3.3443,-3.3447,-3.3457,-3.3453,-3.3477,-3.3499,-3.346,-3.346,-3.3429,-3.3457,-3.3545,-3.3412,-3.3411,-3.3436,-3.3626,-3.3655,-3.3672,-3.3518,-3.352,-3.3522,-3.3626,0,-3.3551,-3.3601,-3.356,-3.3618,-3.3635,-3.3575,-3.3602,-3.3593,-3.3573,-3.3585,-3.3563,-3.3578,-3.3527,-3.3526,-3.3552,-3.3529,-3.3582,-3.3521,-3.354,-3.3541,-3.3543,-3.369,-3.3721,-3.382,-3.3639,-3.3641,-3.3643,0,-3.3681,-3.3681,-3.374,-3.3715,-3.3721,-3.3746,-3.3746,-3.3759,-3.3748,-3.3731,-3.3731,-3.3692,-3.3722,-3.3664,-3.3704,-3.3664,-3.367,-3.366,-3.3663,-3.3661,-3.3597,-3.3691,-3.3851,-3.3865,-3.3663,-3.3662,-3.366,0,-3.3797,-3.3813,-3.385,-3.3848,-3.382,-3.3839,-3.3829,-3.3814,-3.3819,-3.382,-3.3823,-3.3828,-3.383,-3.3835,-3.3799,-3.376,-3.3844,-3.3783,-3.383,-3.3831,-3.3849,-3.3848,-3.401,-3.3856,-3.3856,-3.3856,-3.3855,0,-3.3919,-3.3957,-3.3902,-3.3925,-3.3966,-3.392,-3.3962,-3.3946,-3.3934,-3.3953,-3.3902,-3.3921,-3.3873,-3.3887,-3.3859,-3.3896,-3.3899,-3.3886,-3.3877,-3.3889,-3.3891,-3.3891,-3.3882,-3.386,-3.3859,-3.3858,-3.3857,0,-3.4055,-3.402,-3.4056,-3.4027,-3.4021,-3.4053,-3.4028,-3.4049,-3.4025,-3.405,-3.4053,-3.4017,-3.4031,-3.3996,-3.4005,-3.3987,-3.404,-3.4021,-3.4043,-3.4037,-3.4086,-3.4081,-3.4252,-3.4272,-3.4107,-3.4109,-3.411,0,-3.4134,-3.4161,-3.4135,-3.4144,-3.4136,-3.4151,-3.4155,-3.4112,-3.4118,-3.4108,-3.413,-3.414,-3.4145,-3.4171,-3.4146,-3.4153,-3.4134,-3.4194,-3.4134,-3.4145,-3.4133,-3.4131,-3.4133,-3.4205,-3.4207,-3.4209,-3.421,0,-3.4277,-3.4258,-3.4265,-3.4268,-3.4274,-3.4274,-3.427,-3.4281,-3.4234,-3.4245,-3.4258,-3.4262,-3.4272,-3.4282,-3.4284,-3.4274,-3.4235,-3.4229,-3.424,-3.4251,-3.4262,-3.4256,-3.4074,-3.4225,-3.4223,-3.4222,-3.4222,-3.4221,-3.4385,-3.4407,-3.4392,-3.4402,-3.4395,-3.4393,-3.441,-3.4389,-3.4399,-3.4402,-3.4376,-3.4395,-3.4384,-3.4382,-3.4377,-3.4391,-3.4364,-3.4381,-3.4385,-3.4389,-3.4396,-3.4262,-3.4392,-3.4391,-3.4391,-3.4391,-3.439,0,-3.4524,-3.4511,-3.4522,-3.4517,-3.4526,-3.4488,-3.4482,-3.4492,-3.4509,-3.4501,-3.4508,-3.4523,-3.4534,-3.451,-3.4516,-3.4533,-3.4515,-3.4536,-3.4534,-3.4532,-3.4421,-3.441,-3.455,-3.455,-3.455,-3.455,-3.455,-3.455,-3.4597,-3.4631,-3.4611,-3.4642,-3.4629,-3.4646,-3.4646,-3.4644,-3.4637,-3.4657,-3.4665,-3.4649,-3.4635,-3.464,-3.4648,-3.4641,-3.4645,-3.4673,-3.4659,-3.4556,-3.454,-3.4525,-3.4514,-3.4674,-3.4675,-3.4769,-3.477,-3.477]},{"header":{"parameterUnit":"m.s-1","parameterCategory":1,"la1":30.2991,"la2":30.254,"lo1":-89.0895,"lo2":-89.0444,"dy":0.0017,"dx":0.0017,"nx":28,"ny":28,"refTime":"2024-08-29T03:00:00:Z","depth":0,"parameterNumber":3,"parameterNumberName":"V-component_of_WINDS"},"data":[0,0,0,0,0,0,0,0,0,0,0,0,0,0,0,0,0,0,0,0,0,0,0,0,0,0,0,0,0,0,0,0,0,0,0,0,0,0,0,0,0,0,0,0,0,0,0,0,0,0,0,0,0,0,0,0,0,0,3.4821,3.4822,0,3.488,3.4881,3.4881,3.4847,3.4845,3.4843,3.4842,3.4897,3.49,3.4903,0,0,0,0,0,0,0,0,0,0,0,0,0,3.4673,3.4676,3.4821,3.4822,3.4823,3.488,3.4881,3.4882,3.4847,3.4845,3.4843,3.4841,3.4896,3.49,3.4903,0,0,0,0,0,0,0,0,0,0,0,0,0,3.4735,3.4677,3.4821,3.4812,3.4812,3.488,3.4881,3.4882,3.4847,3.4845,3.4842,3.484,3.4895,3.4899,3.4904,3.4982,0,0,3.4918,3.492,0,0,0,0,0,0,0,0,3.4731,3.474,3.4813,3.4813,3.4813,3.4854,3.4849,3.4915,3.4848,3.4834,3.4842,3.4839,3.4884,3.489,3.4906,3.4984,3.4987,3.4918,3.4921,3.4923,3.4924,0,0,0,0,0,0,0,3.4727,3.4738,3.4844,3.4814,3.4814,3.4804,3.481,3.4861,3.4872,3.4835,3.4833,3.484,3.4884,3.4902,3.4907,3.4988,3.4918,3.4922,3.4925,3.4927,3.5131,3.5133,0,0,0,0,0,0,3.4724,3.4734,3.4842,3.4846,3.4765,3.4808,3.4815,3.4843,3.4872,3.4874,3.4842,3.4838,3.4895,3.4902,3.4909,3.5,3.4923,3.4927,3.493,3.5128,3.5131,3.5134,0,0,0,0,0,0,3.4721,3.4734,3.484,3.479,3.4802,3.4814,3.4845,3.4845,3.4863,3.4877,3.4879,3.4859,3.4894,3.4902,3.4964,3.5001,3.4929,3.4933,3.5125,3.5129,3.5133,3.5184,0,0,0,0,0,0,3.4717,3.4733,3.4764,3.4791,3.4805,3.4896,3.4848,3.4848,3.4872,3.4867,3.4893,3.4895,3.4892,3.4957,3.4968,3.5006,3.4937,3.5121,3.5127,3.5131,3.5179,3.5189,3.5198,0,0,0,0,0,3.4712,3.4776,3.4766,3.4779,3.4845,3.4898,3.4906,3.4903,3.4875,3.4905,3.4914,3.4894,3.4996,3.4964,3.4976,3.5016,3.5119,3.5125,3.5131,3.5175,3.5187,3.5198,0,0,0,0,0,0,3.4752,3.4779,3.4769,3.4844,3.4869,3.4892,3.493,3.4917,3.4949,3.4944,3.4937,3.4943,3.5007,3.5018,3.4981,3.5092,3.5053,3.5062,3.5082,3.5094,3.5104,3.5098,3.4941,0,0,0,0,0,3.477,3.4813,3.4834,3.4898,3.4911,3.4919,3.4942,3.4938,3.4963,3.4973,3.4986,3.501,3.5047,3.5072,3.5107,3.5181,3.5185,3.5215,3.5224,3.5232,3.5239,3.5277,3.529,3.5154,3.5154,3.5154,0,0,3.4807,3.4827,3.4854,3.4906,3.4925,3.4968,3.4928,3.4975,3.5005,3.4979,3.5038,3.5049,3.5075,3.5142,3.5173,3.5154,3.5278,3.524,3.5246,3.5249,3.5284,3.5297,3.5309,3.5158,3.5157,3.5157,0,0,3.4895,3.4916,3.497,3.4991,3.5021,3.5025,3.5038,3.5064,3.507,3.5129,3.511,3.5146,3.5211,3.5229,3.5248,3.5343,3.5325,3.5354,3.5404,3.5441,3.5451,3.5461,3.5492,3.5504,3.5362,3.5362,3.5362,0,3.4936,3.5001,3.5,3.5048,3.507,3.5051,3.5104,3.5123,3.5163,3.5178,3.5156,3.5236,3.5253,3.5323,3.5347,3.5363,3.5376,3.535,3.545,3.546,3.5468,3.5498,3.551,3.5365,3.5365,3.5364,3.5364,0,3.5049,3.5094,3.5135,3.5174,3.5201,3.5252,3.5256,3.5284,3.5277,3.5283,3.5342,3.5362,3.5399,3.5416,3.541,3.5486,3.5473,3.5451,3.5411,3.5484,3.5512,3.5524,3.537,3.5369,3.5368,3.5367,0,0,3.5163,3.5201,3.5216,3.5233,3.5264,3.5298,3.5348,3.5386,3.5408,3.5436,3.5475,3.5531,3.5511,3.5531,3.5527,3.556,3.5631,3.5534,3.5534,3.5549,3.5713,3.5727,3.574,3.5621,3.5623,3.5625,3.571,0,3.5251,3.5338,3.5338,3.5418,3.5458,3.544,3.5482,3.5505,3.5512,3.5546,3.5553,3.5592,3.5564,3.5576,3.5608,3.5616,3.5663,3.561,3.5654,3.5656,3.5646,3.5755,3.5771,3.585,3.5721,3.5723,3.5724,0,3.5365,3.5398,3.5482,3.5506,3.5523,3.5561,3.5596,3.5629,3.5654,3.5657,3.568,3.567,3.5718,3.5679,3.5743,3.5707,3.5725,3.5732,3.5735,3.5737,3.5692,3.5757,3.5876,3.5886,3.5742,3.574,3.5739,0,3.5436,3.5501,3.5559,3.5575,3.5606,3.5633,3.5646,3.5669,3.5692,3.5721,3.5735,3.577,3.5788,3.5815,3.5814,3.5786,3.5878,3.584,3.5879,3.5879,3.5897,3.5896,3.6018,3.5914,3.5914,3.5914,3.5913,0,3.5533,3.5585,3.5592,3.5627,3.5683,3.5682,3.5737,3.5748,3.5769,3.5804,3.5791,3.5824,3.5823,3.5856,3.5856,3.5908,3.5917,3.5919,3.5917,3.5918,3.5918,3.5928,3.5922,3.5917,3.5916,3.5916,3.5915,0,3.5621,3.5629,3.569,3.5715,3.5722,3.5762,3.5782,3.5814,3.5821,3.5866,3.5876,3.5886,3.5924,3.5927,3.5972,3.5971,3.6033,3.6027,3.6025,3.6023,3.6062,3.6057,3.6192,3.6209,3.6097,3.6098,3.6099,0,3.5681,3.5721,3.5749,3.5773,3.5788,3.5827,3.585,3.585,3.5874,3.5905,3.5933,3.5971,3.6001,3.6063,3.6073,3.6106,3.6099,3.6145,3.6104,3.6103,3.6097,3.6093,3.6096,3.6151,3.6153,3.6154,3.6154,0,3.5786,3.5788,3.5823,3.5859,3.5887,3.5915,3.5941,3.5961,3.5963,3.5991,3.6031,3.6054,3.61,3.6136,3.6169,3.6181,3.6167,3.6168,3.6178,3.6178,3.6174,3.6174,3.6044,3.6164,3.6163,3.6162,3.6162,3.6161,3.586,3.5894,3.5919,3.5957,3.5977,3.6002,3.6033,3.6044,3.6077,3.6115,3.6113,3.6156,3.6179,3.6222,3.6236,3.6269,3.6254,3.6269,3.6273,3.6276,3.6279,3.6171,3.6275,3.6275,3.6275,3.6275,3.6274,0,3.5962,3.5978,3.6014,3.6051,3.6081,3.6068,3.6095,3.612,3.6159,3.6182,3.6212,3.6257,3.6292,3.6305,3.6339,3.6363,3.6357,3.6371,3.6368,3.6371,3.6292,3.6279,3.6375,3.6375,3.6375,3.6375,3.6375,3.6375,3.6019,3.6074,3.6078,3.6142,3.6156,3.62,3.6216,3.6238,3.6256,3.6307,3.6337,3.6346,3.6364,3.6399,3.643,3.6433,3.6445,3.6461,3.6461,3.6387,3.6376,3.6367,3.6354,3.6464,3.6465,3.6536,3.6537,3.6537]}]]